SEASAT 1

Last updated on Wed Mar 11 2026 00:02:17 GMT+0000 (Coordinated Universal Time)

1 10967U 78064A 26069.11866629 .00000314 00000+0 12632-3 0 9994 2 10967 108.0108 126.4000 0002328 285.7450 74.3439 14.46160702506576
UTC large
Height (km)
Speed (km/s)
/
Latitude / Longitude
Inclination (degrees)
Orbital Period (minutes)
Azimuth
Elevation
Range (km)
Doppler Factor

Next 0 passes for location: London (51.5072 / 0.1276)

Sorry there are no passes over London.